Powrót do katalogu

STARLINK-11689

AktywnyŁącznośćVLEO
NORAD 64241·PAYLOAD·🇺🇸 United States

Wystrzelony Jun 3, 2025 z Cape Canaveral Space Force Station

Loading…

Następne Przeloty (najbliższe 24 godziny)

TLE

ŚwieżeSource: CelesTrak SupGP

Epoka: Sep 15, 2026, 02:49 UTC

1 64241C 25119J   26258.11784722  .00080461  00000+0  62500-3 0  2582
2 64241  43.0005 147.2879 0001692 265.9093 216.5878 15.70795858    14

Śledź STARLINK-11689 w czasie rzeczywistym z AllMySat

Download on the App Store